Location: ?????
(55.8833°N, 37.6500°E)
Time: 19:22:02
(UTC+00:00)

Cosmos 2297 - Pass Details

Date: 27 February 2020
Orbit: 837 x 858 km, 71.0° (Epoch: 07 April)

Event Time Altitude Azimuth Distance (km) Brightness Sun altitude
Rises 15:30:51 0° 227° (SW) 3,390 7.8 -5.3°
Reaches altitude 10° 15:33:19 10° 231° (SW) 2,456 7.1 -5.7°
Maximum altitude 15:38:53 59° 311° (NW) 966 4.3 -6.5°
Drops below altitude 10° 15:44:28 10° 31° (NNE) 2,463 5.8 -7.2°
Sets 15:46:58 0° 36° (NE) 3,401 6.5 -7.6°
